www.pogodaiklimat.ru

Погода и климат >> Архив погоды >> Россия >> Чукотка >> Эгвекинот


ПОГОДА в Эгвекиноте

  • Прогноз погоды в Эгвекиноте
  • Монитор погоды в Эгвекиноте
  • Климат города

АРХИВ ПОГОДЫ в Эгвекиноте

Время (UTC), дата Ветер
(напр.,м/с)
 
Видим.   Явления Облачность Т
(С)
Тd
(С)
f
(%)
Тe
(С)
Тes
(С)
Комфортность P
(гПа)
Po
(гПа)
Тmin
(С)
Tmax
(С)
R
(мм)
S
(см)
15 14.02 С 10-16
{17}
20 км позёмок {метель} ясно -11.9 -18.1 60 -23 -23 1009.3 1006.4
18 14.02 СЗ 7-15
{16}
20 км позёмок {метель} ясно -11.9 -18.5 58 -21 -21 1009.6 1006.7 -13.1 57
21 14.02 С 7-12
{15}
20 км позёмок {метель} ясно -11.8 -18.6 57 -21 -21 1009.7 1006.8 -17.5
00 15.02 С 7-13
{14}
10 км позёмок {метель} 1/0
[Cc]
-11.6 -18.4 57 -21 -21 1009.8 1006.9
03 15.02 Ю 3
{14}
20 км {метель} ясно -18.3 -20.6 82 -26 -25 1009.9 1006.8
06 15.02 штиль 0
{5}
20 км {метель} ясно -19.3 -21.3 84 -19 -19 1010.6 1007.5 -11.1
09 15.02 Ю 2
{4}
20 км ясно -22.0 -23.8 85 -28 -28 1011.5 1008.4
12 15.02 ЮЗ 2
{5}
20 км ясно -22.0 -24.1 83 -28 -28 1011.8 1008.7
15 15.02 Ю 2
{3}
20 км ясно -22.5 -24.6 83 -29 -29 1011.6 1008.5
18 15.02 С 1
{2}
20 км ясно -23.9 -26.2 81 -27 -27 1011.7 1008.6 -24.8 57
21 15.02 Ю 2
{3}
20 км ясно -23.9 -26.3 80 -30 -30 1012.6 1009.5 -26.2
00 16.02 штиль 0
{3}
20 км ясно -23.5 -25.9 81 -24 -22 1013.3 1010.2
03 16.02 С 1
{2}
20 км ясно -23.6 -26.2 79 -27 -27 1013.2 1010.1
06 16.02 С 1
{3}
20 км ясно -23.8 -28.6 65 -27 -27 1013.5 1010.4 -22.4
09 16.02 штиль 0
{4}
20 км ясно -25.9 -30.2 67 -26 -26 1014.0 1010.9
12 16.02 штиль 0
{3}
20 км ясно -27.0 -32.1 62 -27 -27 1014.0 1010.9
15 16.02 штиль 0
{2}
20 км ясно -28.5 -32.5 68 -29 -29 1014.2 1011.0
18 16.02 штиль 0
{2}
20 км ясно -29.7 -33.3 71 -30 -30 1015.0 1011.8 -30.5 57
21 16.02 штиль 0
{3}
20 км ясно -27.9 -32.2 67 -28 -28 1016.3 1013.1 -30.9
00 17.02 штиль 0
{3}
20 км ясно -25.9 -30.9 63 -26 -25 1016.5 1013.4
03 17.02 ЮЗ 2
{3}
20 км 3/0
[Ci fib]
-27.3 -30.9 71 -34 -34 опасность
обморожения
1017.0 1013.9
06 17.02 З 1
{4}
20 км ясно -27.9 -32.6 64 -32 -32 опасность
обморожения
1018.1 1014.9 -24.9
09 17.02 штиль 0
{2}
20 км ясно -29.2 -33.1 69 -29 -29 1019.0 1015.8
12 17.02 С 1
{3}
20 км ясно -29.0 -32.2 74 -33 -33 опасность
обморожения
1019.6 1016.4
15 17.02 штиль 0
{3}
20 км ясно -29.5 -32.8 73 -30 -30 1019.7 1016.5
18 17.02 штиль 0
{2}
20 км ясно -27.3 -31.0 71 -27 -27 1019.9 1016.7 -30.7 57
21 17.02 штиль 0
{3}
20 км ясно -29.4 -33.0 71 -29 -29 1020.5 1017.3 -30.7
00 18.02 штиль 0
{3}
20 км ясно -24.8 -30.2 61 -25 -23 1020.4 1017.2
03 18.02 штиль 0
{3}
20 км ясно -25.6 -30.4 64 -26 -25 1019.7 1016.5
06 18.02 С 1
{4}
20 км ясно -26.7 -30.8 68 -30 -30 1020.1 1016.9 -24.0
09 18.02 штиль 0
{5}
20 км ясно -28.3 -32.4 68 -28 -28 1020.1 1016.9
12 18.02 Ю 1
{4}
20 км ясно -28.7 -32.3 71 -33 -33 опасность
обморожения
1020.1 1016.9
15 18.02 штиль 0
{3}
20 км ясно -28.1 -31.8 70 -28 -28 1020.0 1016.8
18 18.02 З 1
{5}
20 км ясно -28.9 -32.4 72 -33 -33 опасность
обморожения
1019.8 1016.6 -29.7 57
21 18.02 З 1
{3}
20 км ясно -28.4 -32.3 69 -32 -32 опасность
обморожения
1020.1 1016.9 -30.3
00 19.02 С 1
{4}
20 км ясно -27.3 -32.1 64 -31 -30 опасность
обморожения
1020.0 1016.8
03 19.02 С 3
{4}
20 км ясно -26.5 -31.0 66 -35 -35 опасность
обморожения
1019.6 1016.4
06 19.02 Ю 2
{4}
20 км ясно -28.8 -32.4 71 -36 -36 опасность
обморожения
1019.8 1016.6 -25.1
09 19.02 штиль 0
{3}
20 км ясно -28.8 -32.0 74 -29 -29 1020.2 1017.0
12 19.02 штиль 0
{3}
20 км ясно -29.8 -33.2 72 -30 -30 1020.5 1017.3
15 19.02 штиль 0
{4}
20 км ясно -30.7 -34.0 73 -31 -31 опасность
обморожения
1020.7 1017.5
18 19.02 С 2
{3}
20 км ясно -31.5 -34.9 72 -39 -39 опасность
обморожения
1021.1 1017.9 -31.5 57
21 19.02 ЮЗ 1
{3}
20 км ясно -31.6 -34.6 75 -36 -36 опасность
обморожения
1021.7 1018.5 -32.5
00 20.02 штиль 0
{2}
20 км ясно -27.2 -31.0 70 -27 -26 1022.2 1019.0
03 20.02 Ю 1
{2}
20 км ясно -28.4 -31.6 74 -32 -32 опасность
обморожения
1022.3 1019.1
06 20.02 штиль 0
{3}
20 км ясно -29.4 -32.2 77 -29 -29 1022.5 1019.3 -26.0
09 20.02 штиль 0
{4}
20 км ясно -30.1 -33.3 74 -30 -30 1023.0 1019.8
12 20.02 штиль 0
{2}
20 км ясно -29.3 -32.0 77 -29 -29 1023.1 1019.9
15 20.02 штиль 0
{4}
20 км ясно -30.1 -33.1 75 -30 -30 1023.0 1019.8
18 20.02 С 2
{4}
20 км ясно -30.1 -33.2 74 -38 -38 опасность
обморожения
1022.6 1019.4 -31.6 57
21 20.02 штиль 0
{5}
20 км ясно -29.3 -32.4 74 -29 -29 1023.2 1020.0 -31.7
00 21.02 С 2
{4}
20 км 3/0
[Ci sp]
-27.7 -30.5 77 -35 -34 опасность
обморожения
1023.6 1020.4
03 21.02 СЗ 2
{4}
20 км 8/0
[Ci sp]
-24.1 -27.9 71 -31 -30 опасность
обморожения
1023.8 1020.6
06 21.02 Ю 2
{4}
20 км 4/0
[Ci sp]
-23.7 -27.6 70 -30 -30 1024.2 1021.0 -22.9
09 21.02 ЮЗ 1
{9}
20 км ясно -22.8 -26.8 70 -26 -26 1025.7 1022.5
12 21.02 С 6
{9}
20 км ясно -23.7 -28.0 68 -36 -36 опасность
обморожения
1026.7 1023.5

 

Местоположение метеостанции Эгвекинот (Чукотка, Россия): широта 66.35 долгота -179.00 высота над уровнем моря 22 м.

В архиве по умолчанию представлена погода в Эгвекиноте за последнюю неделю. Архивные данные за месяц целиком и за предыдущие месяцы, начиная с января 2011 года, Вы можете получить, выбрав интересующий диапазон дат из раскрывающегося списка и нажав кнопку "Ввод!".

Внимание! Время в таблицах - всемирное. Для получения местного времени необходимо прибавить поправку, которая в Эгвекиноте равна 12 ч.

Смотрите также архив погоды в соседних городах и на ближайших метеорологических станциях:

Погода на Мысе Ванкарем (Чукотка, Россия) (239 км)
Погода в Уэлене (Чукотка, Россия) (448 км)
Погода на Острове Врангеля (Чукотка, Россия) (517 км)

Пояснения к столбцам:

Ветер - указаны скорость ветра в м/с - средняя за 10 мин, порывы в срок и между сроками (в фигурных скобках) и направление, откуда дует ветер: С - северный, СВ - северо-восточный, В - восточный, ЮВ - юго-восточный, Ю - южный, ЮЗ - юго-западный, З - западный, СЗ - северо-западный.
Видимость - горизонтальная дальность видимости в метрах или километрах. При видимости от 1 до 10 км при отсутствии осадков обычно наблюдается дымка, при ухудшении видимости до 1 км и менее - туман. В сухую погоду видимость может ухудшаться дымом, пылью или мглою.
Явления - указаны атмосферные явления, наблюдавшиеся в срок или в последний час перед сроком; фигурными скобками обозначены явления, наблюдавшиеся между сроками (за 1-3 часа до срока); квадратными скобками обозначены град или гололедные отложения с указанием их диаметра в мм.
Облачность - указаны через наклонную черту общая и нижняя облачность в баллах и высота нижней границы облаков в метрах; квадратными скобками обозначены формы облаков: Ci - перистые, Cs - перисто-слоистые, Cc - перисто-кучевые, Ac - высококучевые, As - высокослоистые, Sc - слоисто-кучевые, Ns - слоисто-дождевые, Cu - кучевые, Cb - кучево-дождевые. Подробнее классификацию облаков см. в Атласе облаков (PDF).
T - Температура воздуха - температура, измеренная на высоте 2 м над землей.
Td - Температура точки росы - температура, при понижении до которой содержащийся в воздухе водяной пар достигнет насыщения.
f - Относительная влажность воздуха - влажноcть воздуха, измеренная на высоте 2 м над землей.
Te - Эффективная температура - температура, которую ощущает одетый по сезону человек в тени. Характеристика душности погоды. При расчете учитывается влияние влажности воздуха и скорости ветра на теплоощущения человека.
Tes - Эффективная температура на солнце - температура, которую ощущает человек, с поправкой на солнечный нагрев. Характеристика знойности погоды. Зависит от высоты солнца над горизонтом, облачности и скорости ветра. Ночью, в пасмурную погоду, а также при ветре 12 м/с и более поправка равна нулю.
P - Атмосферное давление - приведенное к уровню моря атмосферное давление.
Po - Атмосферное давление - измеренное на уровне метеостанции атмосферное давление.
Tmin - Минимальная температура - минимум температуры воздуха на высоте 2 м над землей.
Tmax - Максимальная температура - максимум температуры воздуха на высоте 2 м над землей.
R - Количество осадков - Количество выпавших осадков, мм. При наведении курсора мыши на число - период времени, за который выпало указанное количество осадков.
S - Снежный покров - Высота снежного покрова, см. При наведении курсора мыши на число - состояние снежного покрова и степень покрытия местности в баллах.